LiveATC.Net - Listen to live air traffic control over the Internet! Contact LiveATC.net for advertising information


ICAO: CYOO  IATA: YOO   Airport: Oshawa Municipal Airport
City: Oshawa   State/Province: Ontario
Country: Canada   Continent: North America
CYOO METAR Weather: CYOO 041005Z AUTO 26007KT 9SM OVC026 M01/M03 A2974 RMK SLP078
CYOO Flight Activity (FlightAware)
CYOO Twr/Gnd #2
Feed Status: DOWN
Last heard on: 2015-03-04 06:58:03 (0 days 4 hours 18 minutes ago)
CYOO Twr/Gnd #2 Audio Archives
FacilityFrequency
Oshawa Ground118.400
Oshawa Tower120.100

NOTE: Distant receiver near Toronto

NOTICE

Unauthorized use prohibited. See LiveATC.net Terms of Service


Find LiveATC Audio Streams


Airport/ARTCC Code

Frequency
(e.g., 124.400, 128.75)
Site-wide search

Browse LiveATC Feeds
LiveATC Coverage Map
Top 50 LiveATC Feeds
Bad Weather Areas

LiveATC FAQ
Offer a LiveATC Feed
Contact LiveATC.net
Press Inquiries

LiveATC on iPhone
LiveATC on Android

LiveATC Mobile
(Mobile browser)

ATC Audio Archives
Interesting Recordings

LiveATC Forums


Home Page
About LiveATC.net
Make a Donation
LiveATC Bookstore

Terms of Use
Privacy Policy

ATC/Radar Sites
U.S. ARTCC Freqs
Canadian Air Freqs

AIRMETs/SIGMETs

FAA Airport Status
Nat'l Airspace Status
Arrival Demand Charts


Server Software By:
Icecast.org
Liquidsoap

Please make a donation to help us keep growing!